GFSFLT2_con_sbcape_126.txt.gz
CAPE
645 879 1071 1289 1472 1472 1136 1024 1143 1418 1005 818 773 616 366 551 451 176 349 367 598 404 802 612 513 211 163 103 233 186 195 252
567 725 876 989 1084 1211 1111 929 1021 1197 710 550 377 80 118 335 165 250 338 420 523 544 681 488 353 143 60 36 76 111 126 140
484 651 636 544 751 1013 967 825 919 937 603 295 69 11 2 163 25 85 294 360 377 835 562 442 154 92 24 60 105 37 43 33
463 594 600 492 854 930 761 904 923 816 238 35 0 0 0 4 183 53 102 111 467 838 530 127 105 79 18 41 47 26 0 0
685 642 680 720 809 759 781 756 767 673 130 0 0 0 0 0 41 176 40 259 354 314 184 73 78 62 28 30 38 3 0 2
1025 898 927 1022 724 567 708 738 673 582 322 0 0 0 0 0 0 0 41 146 218 105 83 45 64 65 18 43 45 17 0 1
1400 1184 1154 1246 1012 495 607 688 680 609 196 79 8 17 0 0 0 0 12 0 12 19 12 44 52 77 15 27 31 17 4 5
1638 1475 1438 1430 1281 878 684 698 659 617 559 396 316 232 40 0 6 2 0 0 0 4 0 4 46 62 46 22 44 5 12 0
1570 1649 1652 1654 1248 1181 887 843 752 741 823 647 619 358 120 56 24 0 0 0 0 0 0 0 17 36 58 19 27 2 4 0
1736 1877 1902 1772 1468 1354 1195 868 832 929 777 910 644 399 268 95 39 3 0 0 0 0 0 0 12 41 26 4 2 1 0 0
1712 1815 1977 1969 1627 1324 1255 1188 797 848 992 899 684 418 320 166 47 18 2 0 2 0 0 0 11 23 26 0 0 0 0 0
1444 1714 1947 2108 1843 1388 1065 1094 894 799 936 954 669 441 284 159 13 3 31 0 0 0 0 0 0 21 47 14 0 0 0 0
1111 1535 1850 2130 1799 1375 1129 1169 886 909 755 787 757 547 294 146 15 0 14 11 0 0 0 0 0 4 19 1 0 0 0 0
518 1416 1685 2174 1967 1784 1521 1315 921 995 746 590 661 628 457 391 205 33 0 7 0 0 0 0 0 2 0 10 3 1 0 0
0 1250 1712 2213 2048 1608 777 414 307 605 861 805 736 770 639 524 267 81 63 72 11 0 0 0 0 0 0 1 0 0 0 0
0 1101 1705 2170 1914 1563 1318 1433 1168 1121 1025 993 593 586 567 423 229 122 127 123 17 0 0 0 0 1 0 0 0 0 0 0
204 1220 1779 2032 1979 1666 1405 1387 1201 707 613 401 573 443 431 285 197 62 51 143 96 0 1 0 0 0 0 0 0 0 0 0
25 1186 1699 1795 1975 1728 1546 1206 683 462 533 463 414 338 238 194 164 124 68 102 109 14 0 0 1 0 0 0 0 0 0 0
197 548 697 1398 1608 1581 1449 989 644 548 457 389 254 150 120 97 110 80 76 79 44 17 1 2 2 0 0 0 1 0 0 0
33 75 636 565 598 945 966 655 537 434 341 177 136 160 116 38 21 33 33 19 11 8 5 7 1 0 0 0 0 0 0 0

GFSFLT2_con_sbcape_129.txt.gz
CAPE
812 962 1168 1243 1308 1362 1317 1319 1282 1306 1011 951 911 810 582 559 462 356 558 784 822 988 798 619 553 375 212 208 243 219 199 161
790 920 1083 1092 1108 1041 917 992 1047 1138 831 679 639 293 285 304 82 177 415 653 654 909 644 548 357 153 110 105 142 103 123 190
636 880 940 931 1000 947 800 755 965 921 644 447 213 8 31 115 0 79 310 376 486 755 552 406 204 96 61 75 111 83 67 64
538 739 753 779 1128 1040 626 714 828 634 394 119 0 0 0 1 0 8 215 183 459 631 413 153 97 25 64 111 41 19 36 30
513 657 659 837 1084 1050 782 792 1041 732 107 0 0 0 0 0 0 0 0 29 237 310 135 53 65 29 73 71 46 35 13 29
561 624 702 703 921 844 895 893 771 967 217 0 0 0 0 0 0 0 0 0 45 101 54 1 35 42 57 72 45 4 0 48
770 664 729 738 743 765 692 673 755 731 486 0 0 0 0 0 0 0 0 1 44 21 8 1 5 24 29 89 60 10 0 3
1297 822 789 856 622 628 643 557 658 604 547 134 0 0 0 0 0 0 1 0 1 0 0 0 3 4 20 66 77 15 6 7
1678 1266 936 1025 828 549 628 593 528 482 457 488 63 9 0 0 0 0 0 0 0 1 1 0 0 0 6 18 33 10 9 13
1752 1800 1433 1193 1215 856 677 673 685 604 480 392 429 150 21 0 0 0 0 1 0 0 0 0 0 0 0 1 12 2 1 4
1673 1870 1741 1598 1317 1231 988 761 715 757 757 495 492 378 138 30 14 0 0 0 0 0 0 0 0 0 0 0 1 2 2 26
1492 1807 1967 1887 1605 1306 1192 851 835 866 828 871 563 527 269 71 30 0 0 0 0 0 0 0 0 1 16 0 0 0 1 1
572 1668 1890 1995 1816 1464 1296 1348 952 903 1048 894 757 587 325 167 64 0 9 0 0 0 0 0 0 0 12 1 0 0 0 0
0 1039 1816 2032 1938 1773 1526 1474 1222 972 1067 1033 809 563 299 211 53 26 79 8 0 0 0 0 0 0 3 14 1 0 0 0
0 402 1483 2009 2063 1896 1193 574 572 918 909 1044 906 591 415 423 92 90 85 33 2 0 0 0 0 1 0 4 1 0 0 0
0 111 1259 1901 2080 1864 1476 1577 1324 1426 1349 1152 994 805 610 567 374 189 149 132 36 4 0 1 0 0 0 0 0 0 0 0
0 5 1086 1773 2069 1893 1669 1637 1475 1203 1463 1291 923 999 851 712 437 239 191 174 130 15 0 0 1 1 0 0 0 0 0 0
0 0 1112 1786 2058 1862 1745 1679 1242 1012 1194 1199 977 753 698 505 404 296 248 237 109 15 5 0 0 0 0 3 0 0 0 0
66 1084 1661 2038 2040 1844 1738 1643 1112 1078 983 718 771 628 579 432 355 242 183 188 176 56 16 1 5 3 0 0 0 0 0 0
413 863 1100 1907 2135 1814 1580 924 861 775 721 703 588 512 463 317 283 248 190 119 140 70 43 24 4 3 2 4 3 0 1 0

GFSFLT2_con_sbcape_132.txt.gz
CAPE
744 940 1184 1233 1365 1417 1316 1277 1226 1277 1139 1124 1148 954 685 540 634 720 723 854 838 916 834 730 633 496 352 282 303 232 192 160
831 973 1122 1088 1177 1159 1144 1167 1172 1106 983 893 864 585 425 265 203 404 588 637 684 824 659 603 393 292 225 181 191 143 165 177
807 832 934 930 964 1043 1013 1057 1099 946 796 639 384 87 109 71 0 210 427 418 482 489 537 348 96 126 151 166 159 111 87 107
674 726 795 877 1117 865 666 1039 1053 862 517 263 21 0 0 0 0 39 191 238 383 256 133 44 49 76 133 153 76 96 119 134
488 495 627 665 1045 916 465 563 948 827 207 44 0 0 0 0 0 2 3 61 97 48 13 9 27 51 134 116 66 73 81 108
493 660 514 581 1006 985 838 876 1001 775 374 0 0 0 0 0 0 0 0 0 0 8 19 14 26 39 72 67 33 29 28 88
813 714 571 576 823 884 927 938 840 765 429 1 0 0 0 0 0 0 0 0 17 5 26 10 6 16 51 65 40 11 21 36
1059 775 754 686 739 928 824 760 646 665 541 72 0 0 0 0 0 0 0 0 19 10 1 0 0 1 23 71 71 33 5 1
1260 1117 878 880 706 775 822 745 648 517 463 295 0 0 0 0 0 1 1 0 0 0 0 1 1 1 5 30 52 17 21 19
1329 1460 1006 1000 864 670 672 716 605 536 505 396 38 0 0 0 0 0 1 0 0 0 1 1 1 0 0 14 23 37 17 4
754 1640 1246 1150 1052 720 626 629 597 543 416 421 375 53 0 0 0 0 1 0 0 0 0 0 1 1 1 1 0 1 10 4
4 1704 1683 1402 1320 1062 761 651 573 634 603 463 376 322 41 4 0 1 1 0 0 0 0 0 0 0 0 0 1 0 2 1
0 1556 1913 1795 1693 1475 1137 905 727 748 706 524 460 397 224 42 7 0 14 22 0 0 0 0 1 0 0 1 0 0 1 1
0 906 1911 2035 2022 1797 1603 1351 1072 972 863 698 526 530 260 213 56 2 23 32 1 0 0 0 0 0 0 0 1 1 1 1
0 0 1509 2111 2150 1986 1573 1647 1281 1055 956 906 682 560 363 371 115 26 56 58 19 0 0 0 0 1 0 0 2 5 0 1
0 0 111 1785 2113 2081 1819 1733 1576 1390 1240 1130 956 691 508 474 156 59 125 77 39 2 0 0 0 0 0 0 0 0 0 1
0 0 0 725 2035 2084 1845 1730 1626 1508 1412 1291 1056 916 737 528 230 222 254 154 55 2 0 0 0 0 3 3 0 0 0 0
0 0 0 604 1897 2084 1915 1781 1606 1343 1462 1323 985 882 902 725 566 371 277 222 136 15 0 0 0 0 0 4 5 0 0 0
0 0 1 784 1796 2148 1965 1804 1562 1425 1496 1314 1006 1072 1133 938 630 385 287 223 167 49 13 0 0 0 0 0 0 0 0 0
424 639 785 1196 2012 2212 2010 1795 1500 1432 1381 1388 1150 1076 1132 941 608 427 334 278 199 73 28 6 0 0 0 0 0 0 1 0

GFSFLT2_con_sbcape_135.txt.gz
CAPE
1456 1704 1632 1414 1637 1732 1533 1357 1323 1346 1402 1417 1221 900 619 786 1019 1141 1060 1076 1082 1065 830 781 720 584 423 319 283 584 1038 927
1238 1539 1709 1863 2050 1526 1274 1223 1249 1195 1176 1147 911 688 448 453 637 712 813 794 898 769 637 587 507 363 239 160 186 370 929 1074
1215 1413 1359 1190 1523 1778 1162 1068 1120 1048 1042 836 734 1173 875 520 274 286 510 533 619 529 395 351 271 155 119 122 285 979 1029 1025
1131 1145 1089 966 1072 1373 1837 1706 1840 1812 1551 1454 1334 1147 930 515 146 110 354 299 284 382 134 36 273 932 538 239 1114 1011 824 817
859 872 877 987 988 1124 1340 1441 1479 1352 1638 1433 1156 894 650 300 349 251 745 474 843 534 360 738 845 709 1079 979 915 904 862 768
976 869 850 1007 957 999 1123 1129 1190 1161 1063 1355 1018 792 703 329 187 342 437 760 597 801 710 748 769 875 1003 849 595 632 882 771
1148 1067 1003 930 1047 998 1142 1031 1231 1091 983 938 1030 745 573 297 157 256 254 527 307 461 380 862 757 585 798 355 448 870 826 713
1704 1282 1404 1204 1233 1076 1230 1623 1817 1194 1086 638 891 680 403 321 177 152 257 429 596 327 302 163 716 646 756 817 831 745 508 152
1366 1676 1629 1520 1487 1272 1256 1433 1285 1109 1027 761 584 609 330 285 257 97 175 274 540 94 65 17 363 151 478 527 288 156 116 114
0 1176 1556 1570 1385 1617 1597 1482 1286 1061 828 852 508 595 277 247 261 158 274 181 78 3 4 2 26 44 87 175 230 96 152 93
0 59 1808 1816 1772 1638 1744 1637 1422 1034 875 829 675 597 311 335 300 231 30 47 5 1 4 99 7 20 33 38 48 72 98 145
0 0 1072 2048 1863 1606 1477 1423 1333 1225 1018 767 601 561 475 380 438 143 31 6 6 3 193 218 285 213 109 19 14 4 51 332
0 0 170 1902 1882 1410 1209 1177 1295 1295 1049 956 689 583 483 462 427 184 40 2 0 87 231 197 19 67 5 7 8 26 70 179
0 0 0 1580 1800 1829 1721 1634 1371 1328 1223 868 772 636 532 475 640 394 100 119 72 67 178 73 41 5 30 9 10 7 8 37
0 0 0 1222 1873 1923 1990 1829 1786 1469 1145 898 895 816 656 487 493 344 239 235 72 66 351 244 88 2 52 0 15 11 12 14
0 0 0 711 2303 2263 1982 1856 1819 1613 1421 1324 1122 876 753 589 417 542 369 264 139 40 264 329 211 26 55 24 0 0 9 6
0 0 0 26 2265 2572 2382 2467 2389 2279 1782 1566 1172 851 782 581 473 466 521 360 310 90 59 272 295 199 56 59 8 0 0 0
0 0 0 0 2117 2731 2725 2669 2527 2409 2016 1716 1200 966 807 568 498 477 630 475 378 221 134 187 415 361 219 170 121 27 2 1
0 0 0 0 1697 2649 2870 2804 2745 2462 2139 1954 1371 1222 935 693 530 486 853 928 576 177 103 271 525 622 404 499 286 282 172 14
0 0 0 44 1515 2690 2966 2949 2604 2459 2278 2217 1702 1328 1336 1010 637 751 875 737 503 226 94 151 476 467 402 166 282 369 290 172

GFSFLT2_con_sbcape_138.txt.gz
CAPE
2414 2355 1874 1413 1612 1707 1626 1413 1408 1556 1730 1759 1581 1198 1098 1265 1414 1550 1528 1424 1368 1249 979 907 650 610 434 402 510 793 1090 1045
2246 2301 2250 2203 2139 1618 1499 1320 1245 1426 1531 1518 1196 839 757 896 1098 1245 1216 1228 1194 1019 774 751 616 368 218 248 365 618 998 1068
1915 1924 2020 1988 1931 1862 1422 1099 1046 1097 1281 1106 1008 1496 1264 1074 1031 872 949 923 942 691 490 432 166 108 97 106 410 906 1009 935
1659 1830 1842 1823 1503 1603 1920 1914 2081 2043 1975 2021 1814 1688 1493 1001 735 511 653 651 515 384 172 42 278 1276 976 207 1126 1170 1027 952
1379 1656 1786 1752 1532 1617 1785 1856 1994 2090 2063 2056 1907 1778 1669 1219 1011 617 1049 571 907 532 705 1225 1148 1230 1124 1245 1165 1378 1160 854
1236 1335 1630 1756 1581 1620 1677 1645 1821 1821 1954 2222 2132 1965 1685 1213 1078 804 909 899 932 927 896 1089 862 1341 1285 1111 973 1054 1232 936
320 1335 1433 1600 1733 1553 1785 1686 1740 1743 1710 1835 2101 1781 1745 1370 931 860 869 886 1017 1063 1052 1218 1268 1247 1252 1071 1105 983 936 1108
0 555 1660 1539 1607 1694 1819 1988 1750 1889 1815 1614 2127 1825 1746 1364 1000 771 686 891 835 989 1068 1101 1083 1128 1093 912 780 870 943 1135
0 0 1017 1869 1631 1680 1837 1856 2133 2129 1774 1711 1793 2011 1800 1341 1065 767 781 957 891 1075 1159 1228 1085 1059 1045 1077 934 972 1081 825
0 0 0 1527 1942 1725 1742 1660 2222 2081 1909 1618 1560 1979 1733 1371 1122 859 786 976 1099 1099 1118 672 771 942 905 776 685 766 852 607
0 0 0 0 1598 2036 2273 2077 2082 2023 1902 1679 1482 1828 1834 1353 1136 991 926 865 934 719 654 783 682 713 557 385 790 556 785 537
0 0 0 0 552 2158 1965 1895 1904 1840 1839 1734 1657 1536 1844 1636 1132 1152 1095 873 756 550 392 753 734 630 353 103 221 435 435 546
0 0 0 0 1 1139 2045 2328 2229 2133 1904 1724 1808 1455 1905 1706 1253 1312 831 800 659 482 441 745 776 506 305 10 15 42 144 342
0 0 0 0 0 545 1836 2336 2706 2225 2265 1964 1899 1616 1497 1885 1678 1436 608 679 732 559 832 759 610 705 449 264 147 11 19 319
103 0 0 0 0 110 1490 1798 2216 2194 2397 2014 2152 1616 1228 1567 1812 1635 860 894 581 514 1024 825 542 302 602 402 213 175 119 41
295 22 0 0 0 65 1387 1541 1530 1793 2030 2214 2199 1719 1460 1233 1592 1746 1499 1133 987 631 1123 989 811 286 665 419 407 298 278 145
17 0 0 0 0 1 1444 1688 1455 1888 1849 2272 2365 2024 1398 1105 1310 1418 1383 1082 1469 1220 1041 1489 1295 795 549 619 581 378 372 325
8 66 0 0 0 26 1745 2255 1860 1781 2305 2546 2457 2120 1458 1158 1008 1132 1323 1145 1157 877 891 1385 1289 1081 636 592 695 463 283 288
21 226 0 0 0 15 1909 2355 2368 2593 2367 2541 2422 2040 1391 1289 1141 1061 1139 1205 1120 956 726 814 1426 1295 1035 766 796 748 466 325
16 50 0 0 0 3 1576 2384 2246 2356 2457 2508 2611 2337 1747 1513 1197 1125 1087 1151 1071 909 657 887 1638 1855 1397 1006 1071 927 707 483

GFSFLT2_con_sbcape_141.txt.gz
CAPE
2801 2575 1974 1658 1759 1735 1601 1420 1396 1567 1848 1953 1903 1667 1615 1676 1750 1642 1787 1701 1581 1307 1059 889 715 614 477 430 373 356 382 811
2605 2766 2645 2564 2358 1685 1610 1420 1309 1443 1677 1741 1525 1308 1250 1301 1368 1514 1582 1493 1414 1164 881 607 575 376 370 424 363 368 1134 849
2262 2396 2529 2559 2519 2259 1620 1356 1193 1288 1430 1432 1357 1795 1678 1542 1266 1176 1308 1271 1180 966 726 470 256 75 133 293 368 897 1130 993
1801 2085 2063 2184 1790 2413 2218 2182 1997 1927 1849 2137 2006 1927 1759 1453 1143 895 978 1022 926 733 516 100 233 1085 787 127 924 650 830 902
1255 1700 1936 2026 1712 1812 2113 1984 1964 1943 2295 2176 2083 1969 2283 1564 1570 1262 1256 735 1047 689 673 880 852 1308 983 970 1265 1644 1025 972
0 1427 1670 2055 1704 1574 1660 1838 2223 1973 2149 2788 2302 2413 2243 1659 1352 1138 1179 989 1056 815 745 739 1047 1225 1093 1137 1141 1305 1310 1268
0 0 1352 1731 2038 1590 1856 1881 2081 2394 2321 2499 2518 2184 2463 1634 1631 1172 945 957 1306 1200 849 1080 1391 1249 1226 1141 1121 1203 1140 1333
0 0 0 1575 1928 2217 2312 2177 1932 2260 2289 2225 2572 2583 2610 1551 1582 1177 898 852 847 1336 1154 1383 1579 1055 1270 986 967 1198 1273 871
0 0 0 0 1595 2196 2186 1867 2108 2066 2186 2254 2413 2877 2668 2304 1638 1275 953 1051 1247 1626 1760 1411 1483 990 1053 979 1043 1026 1058 945
0 0 0 0 0 2436 2221 2088 2275 2233 2303 2507 2289 3035 2737 2580 1656 1539 1137 1257 1045 1236 1080 1390 1540 1108 1187 776 943 1011 934 854
0 0 0 0 0 111 2978 2839 2655 2474 2592 2692 2583 2679 2791 2482 1952 1785 1919 1250 1255 1390 1319 1365 1219 1054 781 1238 896 836 999 754
0 1 7 2 0 0 493 2578 2869 2648 2564 2793 3005 2397 2916 2858 2080 2029 1810 1595 1431 1436 1418 1348 1140 794 598 456 788 902 993 1288
0 0 0 97 0 0 0 1561 2341 2675 2729 2673 3023 2347 2857 2939 2425 2280 2008 1822 1731 1862 1067 1136 1313 956 761 285 146 298 367 372
4 0 0 0 40 0 0 0 2208 2404 2755 2645 2854 2733 2626 2876 2718 2330 2192 1910 1972 1819 1427 1185 1388 796 653 205 37 10 26 60
4 2 2 2 102 9 0 0 694 2208 2283 2533 2824 2967 2442 2914 2841 2574 2353 2025 1906 1816 1564 1460 1260 1221 969 551 335 231 219 69
5 6 8 3 64 357 11 0 233 1727 2230 2170 2854 2918 2486 2564 2779 2764 2273 1923 1982 1798 1629 1839 1553 1167 1256 957 1124 358 414 338
11 5 5 8 14 573 21 47 338 1574 2163 1723 2384 2816 2644 2187 2758 2770 2524 2014 2110 1864 1634 2139 1748 1098 915 1252 1300 813 668 356
11 7 2 6 3 620 322 58 552 2109 2035 1854 1551 2373 2513 1860 1920 2814 2905 2220 2258 2043 1688 2166 1843 1645 1079 1280 1109 950 550 440
10 5 6 4 44 564 183 172 24 1968 2110 2156 1108 1756 2441 1830 1498 2380 2790 2582 2289 2418 1908 2085 2087 1792 1891 1185 1324 995 591 445
7 10 11 10 119 233 224 202 56 1914 1908 1744 555 161 1310 2083 1496 1658 2485 2633 2249 2415 2093 1941 2192 2256 1802 1775 1282 1189 711 489

GFSFLT2_con_sbcape_144.txt.gz
CAPE
3364 2414 1838 1774 1729 1635 1513 1378 1452 1637 1862 1945 1914 1793 1694 1746 1711 1607 1731 1725 1583 1145 1045 859 716 657 530 282 202 142 37 5
2977 3088 2554 2421 2066 1598 1512 1401 1300 1496 1714 1761 1705 1524 1485 1549 1549 1519 1627 1548 1405 1157 908 677 582 392 293 214 94 132 246 74
2645 3014 3113 3110 2953 2017 1390 1375 1289 1364 1474 1613 1371 1789 1558 1452 1427 1333 1491 1320 1266 1044 736 537 368 154 162 167 129 205 317 430
2258 2728 2854 2907 2424 2207 2175 2009 1750 1720 1782 1733 1876 1826 1886 1497 1339 1092 1195 1179 1094 851 616 319 76 345 110 25 209 243 356 247
0 1216 2779 2928 2383 2344 2235 2216 2025 2018 2097 2178 1940 1874 1948 1339 1017 988 1062 827 932 625 387 326 463 773 691 479 427 179 14 123
0 0 0 2651 2405 2023 2086 1800 2074 2114 2101 2091 2319 2075 2047 1781 1520 1409 1186 896 964 711 699 607 700 845 876 692 709 649 194 165
0 0 0 0 2307 2081 2251 1926 2151 2021 2314 2257 2387 2066 1938 1752 1697 1290 1017 1084 772 765 672 615 841 684 627 934 1021 727 450 287
0 0 0 0 0 447 1915 2494 2053 2098 2204 2442 2483 2155 2063 1779 1726 1503 1044 1058 792 956 769 955 844 896 991 1046 1031 1119 938 338
0 0 0 0 0 0 35 1762 2112 2076 2106 2267 2604 2381 2253 2113 1566 1626 1280 992 983 919 859 886 731 914 959 1031 924 968 763 328
0 0 0 0 0 0 0 0 1726 2009 2106 2149 2202 2433 2335 2380 1790 1541 1290 1198 1319 928 961 804 736 677 607 683 752 765 582 482
0 0 0 0 0 0 0 0 0 1899 2018 2138 2152 2143 2332 2474 1801 1581 1322 1349 1062 1130 812 928 696 573 496 494 714 703 631 663
0 0 0 0 0 0 0 0 0 42 1912 1996 2215 2012 2249 2403 1906 1706 1354 1297 1256 1069 958 1107 799 786 787 523 362 489 429 302
0 0 0 0 0 0 0 0 0 0 1341 1647 2107 2068 2037 2476 2153 1712 1371 1212 1299 1199 1081 1095 1004 763 355 209 43 43 386 326
0 0 2 0 1 2 0 0 0 0 75 1359 1460 2048 1966 2338 2126 1651 1472 1229 1391 1303 1123 1123 868 779 426 35 10 0 0 109
0 1 1 4 6 3 1 0 0 0 0 1168 1272 1477 2010 2002 2124 1702 1600 1226 1295 1358 1020 943 897 785 398 180 64 11 0 0
1 4 5 6 10 7 12 10 1 0 0 0 1328 1071 1446 1313 1768 1730 1624 1297 1305 1399 1184 833 766 855 639 436 284 204 177 133
0 4 5 8 5 10 14 11 4 0 9 0 752 1131 757 1565 1725 1532 1673 1428 1268 1278 1159 915 984 983 653 574 477 583 813 404
3 5 8 7 5 6 13 15 13 1 31 0 788 996 958 857 1574 1623 1744 1553 1265 1357 1073 899 1082 931 864 600 697 656 567 423
5 7 8 6 7 10 9 15 12 1 57 0 282 790 889 966 1052 1585 1797 1598 1244 1314 1124 962 1138 927 667 548 573 559 564 334
3 9 8 6 7 7 2 8 55 248 11 0 0 1039 802 233 267 1245 1633 1663 1384 1219 1166 1035 1321 1069 944 472 621 663 637 244

GFSFLT2_con_sbcape_147.txt.gz
CAPE
1622 1578 1659 1634 1498 1402 1325 1314 1534 1746 1897 1874 1774 1623 1594 1581 1539 1521 1584 1539 1506 1190 1052 941 868 774 691 389 35 2 0 0
2025 1619 1449 1374 1326 1429 1316 1220 1285 1530 1780 1815 1718 1579 1477 1459 1407 1418 1505 1519 1342 1078 951 799 710 682 386 79 80 86 0 0
1582 2130 1944 1716 1559 1341 1370 1256 1157 1341 1536 1696 1418 1234 1272 1317 1295 1271 1310 1357 1265 1055 852 694 616 469 173 186 41 43 0 42
0 21 2081 2272 2403 1591 1164 1119 976 916 1198 1111 1183 1319 1282 1409 1243 1197 1282 1202 1152 1034 745 556 289 128 23 42 69 61 140 248
0 0 0 256 1368 1590 1528 1444 1244 1141 1174 1237 1204 1442 1304 1200 966 901 959 1059 886 754 548 375 214 247 113 32 126 11 55 16
0 0 0 0 0 257 1371 1350 1575 1378 1363 1356 1452 1289 1257 1102 813 772 679 678 649 506 327 267 315 320 359 195 168 0 0 0
0 0 0 0 0 0 0 247 1140 1473 1464 1499 1629 1418 1341 1114 947 903 786 544 594 447 331 369 372 414 479 325 352 68 20 0
0 0 0 0 0 0 0 0 0 1266 1332 1558 1514 1712 1465 1355 1103 1105 893 721 482 441 288 283 351 499 396 422 375 184 141 88
0 0 0 0 0 0 0 0 0 2 1230 1347 1857 1852 1568 1657 1321 1053 949 605 667 513 498 348 397 539 541 396 425 296 64 63
0 0 0 0 0 0 0 0 0 0 0 1464 1557 2077 1766 1577 1544 1210 815 511 669 773 732 534 348 467 440 310 269 157 91 6
0 0 0 0 0 0 0 0 0 0 0 0 1581 1749 2169 1780 1714 1401 846 610 696 672 510 618 319 288 278 183 177 111 169 132
0 0 0 0 0 0 0 0 0 0 0 0 12 1568 1844 2026 1841 1271 1032 699 489 544 503 333 344 232 478 187 82 131 167 76
0 0 0 0 0 0 0 0 0 0 0 0 0 396 1531 1878 1671 1697 1033 844 680 528 422 522 312 143 109 0 0 7 40 9
0 0 0 0 0 0 0 0 0 0 0 0 0 0 1004 1362 1497 1689 1247 955 684 622 561 482 503 215 54 0 11 0 0 23
0 0 0 0 0 0 1 2 0 0 0 0 0 0 142 1145 1288 1433 1486 1016 829 789 655 573 689 331 22 0 0 1 0 0
0 0 0 0 5 3 5 7 6 1 3 0 0 0 0 611 1141 1204 1391 1118 879 923 746 625 512 590 56 0 0 0 0 2
0 0 0 0 5 5 6 5 6 9 2 4 2 0 0 0 1007 946 968 1152 898 952 796 667 558 527 345 127 0 0 0 0
0 0 0 1 6 6 6 7 4 5 4 0 2 3 0 0 761 762 0 553 923 906 801 659 634 531 468 274 72 22 227 10
0 0 1 4 5 4 7 5 8 11 5 9 5 6 0 0 436 350 0 69 590 906 815 682 602 500 476 353 267 72 88 28
0 3 5 4 4 3 7 10 17 14 2 1 6 0 0 238 652 323 0 0 8 710 810 780 622 528 525 346 334 284 151 39

GFSFLT2_con_sbcape_150.txt.gz
CAPE
1440 1479 1461 1366 1300 1243 1189 1250 1488 1719 1856 1875 1837 1721 1611 1545 1554 1542 1515 1450 1441 1329 1101 1020 963 880 738 126 6 4 0 41
1607 1430 1438 1292 1313 1356 1266 1175 1169 1404 1689 1774 1720 1607 1543 1495 1444 1428 1455 1474 1471 1249 1050 971 885 812 520 6 1 0 0 0
0 0 630 1016 1093 1190 1211 1153 1050 1097 1355 1615 1434 1198 1293 1350 1326 1356 1435 1451 1340 1137 953 813 731 700 217 3 0 19 0 3
0 0 0 0 0 395 881 900 974 871 991 1050 724 994 1016 1332 1311 1279 1274 1339 1276 1110 874 689 512 321 56 6 5 19 0 5
0 0 0 0 0 0 0 87 743 716 783 893 948 1183 948 1016 1000 986 1000 1176 996 980 724 537 369 198 55 5 15 3 0 53
0 0 0 0 0 0 0 0 0 0 730 799 950 1019 982 926 869 780 743 898 782 749 589 404 207 210 149 39 7 0 0 0
0 0 0 0 0 0 0 0 0 0 0 285 1093 1202 1157 850 812 710 707 547 596 562 427 295 259 262 263 213 27 0 0 0
0 0 0 0 0 0 0 0 0 0 0 0 470 1394 1404 1090 887 730 739 616 566 481 405 335 305 295 259 207 77 0 0 0
0 0 0 0 0 0 0 0 0 0 0 0 0 758 1498 1532 1121 851 934 675 529 380 242 220 218 312 350 236 193 26 0 0
0 0 0 0 0 0 0 0 0 0 0 0 0 0 297 1455 1506 1308 1022 675 668 446 378 328 291 393 349 197 226 149 40 0
0 0 0 0 0 0 0 0 0 0 0 0 0 0 0 864 1405 1598 1251 824 636 588 537 645 440 401 332 102 180 151 79 73
0 0 0 0 0 0 0 0 0 0 0 0 0 0 0 0 562 1380 1534 938 605 577 659 690 600 448 556 120 47 128 76 32
0 0 0 0 0 0 0 0 0 0 0 0 0 0 0 0 0 767 1286 1408 859 569 613 484 383 291 262 11 0 1 110 68
0 0 0 0 0 0 0 0 0 0 0 0 0 0 0 0 0 0 889 1095 1051 545 561 527 512 270 385 357 152 30 0 0
0 0 0 0 0 0 0 0 0 0 0 0 0 2 1 0 0 0 112 769 1036 671 660 692 601 260 196 332 131 302 22 0
0 0 0 0 0 0 1 3 3 2 3 2 2 1 1 2 1 0 0 519 612 762 768 741 688 528 132 127 27 0 140 3
0 0 0 0 0 0 2 3 4 5 4 2 2 5 0 1 2 0 0 147 736 868 736 632 669 631 490 476 6 0 0 0
0 0 0 0 0 1 2 5 6 6 6 10 8 5 6 0 0 0 0 0 672 461 666 604 653 697 571 528 329 88 38 5
0 0 0 0 1 3 3 4 4 6 10 15 12 13 9 1 0 0 0 0 393 222 16 1 416 551 567 541 475 279 132 48
0 0 1 1 3 3 4 4 9 7 8 14 13 18 16 1 2 1 0 0 139 12 0 0 3 514 468 491 449 427 110 213

GFSFLT2_con_sbcape_156.txt.gz
CAPE
0 0 0 0 0 0 5 56 316 582 695 910 1210 1544 1673 1546 1583 1528 1587 1470 1436 1369 1070 1019 1040 914 619 447 438 286 55 14
0 0 0 0 0 0 0 0 0 0 251 502 336 703 1133 1437 1403 1348 1451 1467 1376 1289 1175 937 934 917 626 199 139 13 2 8
0 0 0 0 0 0 0 0 0 0 0 0 117 324 511 803 1115 1273 1231 1346 1342 1319 1174 953 854 831 614 17 0 0 0 0
0 0 0 0 0 0 0 0 0 0 0 0 0 23 256 432 816 1136 1186 1204 1309 1337 1178 858 733 329 444 221 16 0 0 0
0 0 0 0 0 0 0 0 0 0 0 0 0 0 38 520 457 558 722 896 907 1030 871 586 396 195 317 203 181 0 0 0
0 0 0 0 0 0 0 0 0 0 0 0 0 0 0 0 416 640 521 606 777 738 616 522 466 204 56 129 28 21 0 0
0 0 0 0 0 0 0 0 0 0 0 0 0 0 0 0 0 256 724 611 670 693 912 865 500 265 28 87 109 55 0 0
0 0 0 0 0 0 0 0 0 0 0 0 0 0 0 0 0 0 60 808 771 796 839 805 552 313 207 198 247 128 0 0
0 0 0 0 0 0 0 0 0 0 0 0 0 0 0 0 0 0 0 42 866 756 653 583 533 197 328 414 301 234 0 0
0 0 0 0 0 0 0 0 0 0 0 0 0 0 0 0 0 0 0 0 2 927 858 528 413 393 448 378 353 202 121 0
0 0 0 0 0 0 0 0 0 0 0 0 0 0 0 0 0 0 0 0 0 2 895 783 654 431 395 369 425 319 183 36
0 0 0 0 0 0 0 0 0 0 0 0 0 0 0 0 0 0 2 2 1 0 84 847 788 640 486 414 399 387 209 108
0 0 0 0 0 0 0 0 0 0 0 0 0 0 0 0 0 1 0 2 6 4 0 74 737 549 398 369 304 307 190 127
0 0 0 0 0 0 0 0 0 0 0 0 0 0 0 0 0 0 0 3 1 2 6 0 660 725 707 242 441 157 84 97
0 0 0 0 0 0 0 0 0 0 0 0 0 0 0 0 0 2 0 3 5 0 2 6 23 718 752 449 272 424 467 184
0 0 0 0 0 0 0 0 0 0 1 2 0 0 0 1 9 9 7 4 10 6 1 5 10 107 695 603 76 66 370 259
0 0 0 0 0 0 0 0 0 0 1 0 1 2 2 5 4 6 11 16 14 17 9 1 5 9 348 705 520 3 0 46
0 0 0 0 0 0 0 0 0 1 1 1 3 3 4 0 10 3 13 17 17 17 14 6 4 7 4 385 617 269 138 133
0 0 0 0 0 0 0 0 1 1 2 3 4 0 5 8 10 12 13 18 19 17 16 18 11 3 4 13 523 529 329 257
0 0 0 0 0 0 0 0 1 1 3 4 2 7 11 10 11 13 10 19 13 14 18 16 9 9 3 9 82 21 272 207

GFSFLT2_con_sbcape_159.txt.gz
CAPE
0 0 0 0 0 0 0 0 0 0 45 51 63 355 662 943 1463 1519 1483 1503 1450 1480 1228 989 1038 895 667 512 686 387 928 1024
0 0 0 0 0 0 0 0 0 0 0 0 0 21 347 722 915 1519 1381 1395 1405 1324 1172 1010 828 887 660 401 377 347 1053 961
0 0 0 0 0 0 0 0 0 0 0 0 0 0 247 561 594 722 985 1192 1250 1267 1165 1047 803 765 725 50 32 1160 1091 837
0 0 0 0 0 0 0 0 0 0 0 0 0 0 0 10 358 447 654 889 1012 1213 1197 1081 722 1458 1280 333 1010 1216 1089 856
0 0 0 0 0 0 0 0 0 0 0 0 0 0 0 0 20 634 1184 1176 1603 1715 1744 1754 1575 1460 1213 846 769 1052 1144 1018
0 0 0 0 0 0 0 0 0 0 0 0 0 0 0 0 0 0 296 1087 1467 1647 1933 1929 1841 1495 834 705 564 537 519 1152
0 0 0 0 0 0 0 0 0 0 0 0 0 0 0 0 0 0 0 0 576 1035 1652 1653 1893 1625 768 693 500 388 450 1198
0 0 0 0 0 0 0 0 0 0 0 0 0 0 0 0 0 0 0 0 0 91 909 1238 1498 1595 995 570 594 716 1264 1244
0 0 0 0 0 0 0 0 0 0 0 0 0 0 0 0 0 0 0 0 0 0 2 828 1120 1220 905 578 661 944 1245 1239
0 0 0 0 0 0 0 0 0 0 0 0 0 0 0 0 0 0 0 0 0 0 0 27 824 848 794 887 1260 1298 1011 1177
0 0 0 0 0 0 0 0 0 0 0 0 0 0 0 1 0 0 6 2 3 2 0 0 66 1050 925 939 1066 1088 1109 753
0 0 0 0 0 0 0 0 0 0 0 0 0 0 0 1 1 3 5 5 6 10 10 1 0 23 929 803 819 928 1072 871
0 0 0 0 0 0 0 0 0 0 0 0 0 0 2 3 2 3 7 4 5 2 3 13 1 0 467 900 860 811 910 851
0 0 0 0 0 0 0 0 0 0 0 0 0 2 4 5 8 8 9 10 8 6 4 1 14 3 63 672 651 680 547 708
0 0 0 0 0 0 0 0 0 0 0 0 0 4 5 5 3 6 7 8 18 15 12 8 6 11 6 199 565 905 1043 845
0 0 0 0 0 0 0 0 0 0 0 1 2 4 4 7 5 4 12 13 21 20 10 21 15 6 15 1 475 527 917 955
0 0 0 0 0 0 0 0 0 0 0 1 1 3 5 7 7 9 11 16 8 20 18 18 25 19 10 9 11 688 591 561
0 0 0 0 0 0 0 0 1 0 0 1 2 4 5 5 8 8 10 13 10 17 19 15 17 28 9 13 19 14 438 823
0 0 0 0 0 0 0 1 2 2 1 0 3 4 6 9 8 9 13 14 17 20 16 14 15 17 19 18 9 38 4 137
0 0 0 0 0 0 0 1 0 2 2 3 3 4 8 4 7 7 9 11 5 15 18 15 19 21 16 21 9 30 36 1

GFSFLT2_con_sbcape_162.txt.gz
CAPE
0 0 0 0 0 0 0 0 0 0 0 0 0 143 380 723 913 1445 1651 1552 1580 1487 1389 1203 1074 1072 858 616 750 535 1294 1387
0 0 0 0 0 0 0 0 0 0 0 0 0 0 90 572 635 1016 1060 1418 1498 1481 1293 1091 986 837 809 543 403 419 1318 1351
0 0 0 0 0 0 0 0 0 0 0 0 0 0 52 637 570 510 583 969 1102 1247 1232 1113 996 788 743 449 156 1364 1474 1512
0 0 0 0 0 0 0 0 0 0 0 0 0 0 0 0 8 282 448 689 883 974 1075 1089 955 1482 1447 604 1300 1330 1483 1483
0 0 0 0 0 0 0 0 0 0 0 0 0 0 0 0 0 4 597 1137 1571 1025 1448 1777 1486 1559 1264 1397 1507 1514 1473 1423
0 0 0 0 0 0 0 0 0 0 0 0 0 0 0 0 0 0 0 0 0 1527 1457 1407 1747 1690 1739 1686 1669 1515 1406 1342
0 0 0 0 0 0 0 0 0 0 0 0 0 0 0 0 0 0 0 0 0 0 22 1469 1610 1633 1839 1936 1695 1625 1547 1459
0 0 0 0 0 0 0 0 0 0 0 0 0 0 0 0 0 0 0 0 0 0 0 0 141 1792 1581 2056 1775 1711 1612 1487
0 0 0 0 0 0 0 0 0 0 0 0 0 0 0 0 0 0 0 0 0 0 0 0 0 650 1248 1777 1421 1273 1726 1698
0 0 0 0 0 0 0 0 0 0 0 0 0 0 0 0 0 0 0 0 0 0 0 0 0 0 560 1280 1296 1450 1761 1716
0 0 0 0 0 0 0 0 0 0 0 0 0 0 1 1 0 0 2 0 0 1 0 0 0 0 52 196 1551 1417 1675 1753
0 0 0 0 0 0 0 0 0 0 0 0 1 1 2 2 0 1 2 1 2 4 10 2 2 0 0 33 504 1407 1502 1610
0 0 0 0 0 0 0 0 0 0 0 0 0 1 3 4 2 2 5 6 7 7 6 9 1 0 1 2 322 1056 1494 1346
0 0 0 0 0 0 0 0 0 0 0 0 0 1 3 1 5 5 6 9 10 9 4 4 6 5 8 11 52 312 768 1478
0 0 0 0 0 0 0 0 0 0 0 0 0 1 3 5 9 9 10 7 9 9 4 6 13 6 9 28 26 141 360 594
0 0 0 0 0 0 0 0 0 0 0 0 0 0 0 6 6 9 13 12 10 10 10 14 16 12 6 16 25 24 11 604
0 0 0 0 0 0 0 0 0 0 0 0 0 0 0 4 12 14 13 7 13 8 10 13 15 32 24 16 6 17 16 156
0 0 0 0 0 0 0 0 0 0 0 0 0 0 0 3 8 12 12 12 11 13 13 14 3 20 22 21 23 5 8 20
0 0 0 0 0 0 0 0 0 0 0 0 1 1 1 4 9 13 11 8 13 10 6 14 12 6 18 22 27 25 20 32
0 0 0 0 0 0 0 0 0 0 2 6 3 4 4 7 9 7 6 12 11 11 16 8 21 18 18 24 26 26 28 23

GFSFLT2_con_sbcape_165.txt.gz
CAPE
0 0 0 0 0 0 0 0 0 0 0 0 0 0 152 479 929 1376 1790 1885 1822 1783 1642 1526 1369 1184 1142 838 696 732 1171 1531
0 0 0 0 0 0 0 0 0 0 0 0 0 0 14 583 854 866 932 1237 1552 1669 1536 1382 1284 1058 895 809 548 503 1196 1247
0 0 0 0 0 0 0 0 0 0 0 0 0 0 0 0 0 206 554 682 974 1274 1305 1260 1160 1005 877 763 504 1203 1238 1280
0 0 0 0 0 0 0 0 0 0 0 0 0 0 0 0 0 11 80 623 909 927 1058 1156 1031 1548 1207 685 1313 1203 1135 1424
0 0 0 0 0 0 0 0 0 0 0 0 0 0 0 0 0 0 0 35 178 1260 1585 1400 1468 1356 1316 1596 1956 1456 1064 955
0 0 0 0 0 0 0 0 0 0 0 0 0 0 0 0 0 0 0 0 0 0 595 1109 1610 1765 1898 1933 1950 1490 1013 930
0 0 0 0 0 0 0 0 0 0 0 0 0 0 0 0 0 0 0 0 0 0 0 2 334 924 1700 1931 1570 1587 1681 1316
0 0 0 0 0 0 0 0 0 0 0 0 0 0 0 0 0 0 0 0 0 0 0 0 0 62 559 1528 1966 1901 1802 1706
0 0 0 0 0 0 0 0 0 0 0 0 0 0 0 0 0 0 0 0 0 0 0 0 0 0 8 632 1402 1920 1901 1680
0 0 0 0 0 0 0 0 0 0 0 0 0 0 0 0 0 0 0 0 0 0 0 0 0 0 0 0 439 1294 1408 1660
0 0 0 0 0 0 0 0 0 0 0 0 0 0 0 1 0 0 1 0 0 0 0 0 0 0 0 0 8 285 1288 1847
0 0 0 0 0 0 0 0 0 0 0 0 0 0 1 2 0 2 3 1 0 2 9 7 3 0 0 0 0 5 336 1173
0 0 0 0 0 0 0 0 0 0 0 0 0 0 1 3 2 1 4 2 5 6 7 5 5 2 1 0 0 24 314 577
0 0 0 0 0 0 0 0 0 0 0 0 0 0 0 0 4 5 8 6 7 9 5 9 6 10 12 6 0 0 24 433
0 0 0 0 0 0 0 0 0 0 0 0 0 0 0 1 4 7 9 5 10 6 5 8 16 13 17 11 10 0 0 30
0 0 0 0 0 0 0 0 0 0 0 0 0 0 0 0 4 6 10 7 6 10 8 8 13 12 12 2 11 25 19 5
0 0 0 0 0 0 0 0 0 0 0 0 0 0 0 0 4 9 9 7 3 2 7 8 12 15 11 12 16 21 11 27
0 0 0 0 0 0 0 0 0 0 0 0 0 0 0 1 3 7 10 8 12 15 12 7 8 5 22 21 23 17 14 19
0 0 0 0 0 0 0 0 0 0 0 0 0 0 0 3 7 8 9 7 8 18 12 9 8 14 13 17 18 23 21 23
0 0 0 0 0 0 0 0 0 0 0 1 2 3 4 5 8 10 7 5 5 15 19 13 5 15 6 17 15 20 19 15

GFSFLT2_con_sbcape_168.txt.gz
CAPE
0 0 0 0 0 0 0 0 0 0 0 0 0 0 0 348 805 1233 1581 1634 1769 1795 1685 1544 1437 1305 1064 1034 809 658 677 923
0 0 0 0 0 0 0 0 0 0 0 0 0 0 0 199 655 336 445 732 994 1354 1401 1388 1315 1155 1030 829 773 587 540 847
0 0 0 0 0 0 0 0 0 0 0 0 0 0 0 0 0 0 25 235 620 925 975 1104 1168 1115 1020 903 703 756 891 1032
0 0 0 0 0 0 0 0 0 0 0 0 0 0 0 0 0 0 0 32 326 720 837 788 859 1247 1258 729 725 874 875 836
0 0 0 0 0 0 0 0 0 0 0 0 0 0 0 0 0 0 0 0 0 0 18 1261 1423 1377 1337 1354 1004 1178 1412 910
0 0 0 0 0 0 0 0 0 0 0 0 0 0 0 0 0 0 0 0 0 0 0 0 0 147 547 1199 1698 1483 1372 1081
0 0 0 0 0 0 0 0 0 0 0 0 0 0 0 0 0 0 0 0 0 0 0 0 0 0 0 197 630 1517 1471 1288
0 0 0 0 0 0 0 0 0 0 0 0 0 0 0 0 0 0 0 0 0 0 0 0 0 0 0 0 138 805 1414 1485
0 0 0 0 0 0 0 0 0 0 0 0 0 0 0 0 0 0 0 0 0 0 0 0 0 0 0 0 0 114 618 1406
0 0 0 0 0 0 0 0 0 0 0 0 0 0 0 0 0 0 0 0 0 0 0 0 0 0 0 0 0 0 26 325
0 0 0 0 0 0 0 0 0 0 0 0 0 0 0 0 0 0 0 0 0 0 0 0 0 0 0 0 0 0 0 0
0 0 0 0 0 0 0 0 0 0 0 0 0 0 0 0 0 0 0 0 0 0 3 1 2 0 0 0 0 0 0 0
0 0 0 0 0 0 0 0 0 0 0 0 0 0 0 0 0 0 0 0 0 2 0 1 0 1 2 0 0 0 0 0
0 0 0 0 0 0 0 0 0 0 0 0 0 0 0 0 0 0 0 0 1 2 0 1 0 6 8 5 0 0 0 0
0 0 0 0 0 0 0 0 0 0 0 0 0 0 0 0 0 0 1 3 0 1 1 5 11 1 8 20 10 1 1 0
0 0 0 0 0 0 0 0 0 0 0 0 0 0 0 0 0 0 0 5 1 0 0 5 12 12 4 2 2 9 13 7
0 0 0 0 0 0 0 0 0 0 0 0 0 0 0 0 0 0 4 4 1 3 1 8 4 15 8 16 18 13 10 15
0 0 0 0 0 0 0 0 0 0 0 0 0 0 0 0 0 1 0 1 2 1 3 5 6 12 15 15 21 25 16 16
0 0 0 0 0 0 0 0 0 0 0 0 0 0 0 0 0 0 0 1 0 1 2 6 7 8 10 17 21 21 23 16
0 0 0 0 0 0 0 0 0 0 0 0 0 0 0 0 0 0 3 3 0 5 2 3 5 6 10 15 17 16 21 26